Weather Roundup
Issued by NWS Chicago, IL

Home | Current Version | Previous Version | Text Only | Print | Product List | Glossary On
Versions: 1 2 3 4 5 6 7 8 9 10 11 12 13 14 15 16 17 18 19 20 21 22 23 24 25 26 27 28 29 30 31 32 33 34 35 36 37 38 39 40 41 42 43 44 45 46 47 48 49 50
000
NZUS59 KLOT 241110
HRRLOT

CHICAGO AREA WEATHER ROUNDUP
NATIONAL WEATHER SERVICE CHICAGO/ROMEOVILLE IL
600 AM CDT THU APR 24 2014

NOTE: "FAIR" INDICATES FEW OR NO CLOUDS BELOW 12,000 FEET WITH NO
SIGNIFICANT WEATHER AND/OR OBSTRUCTIONS TO VISIBILITY.

* THESE STATIONS ARE NOT UNDER NWS QUALITY CONTROL. THEY ALSO MAY NOT
  REPORT WEATHER SUCH AS PRECIPITATION OR FOG.

ILZ005-006-012>014-019>023-241200-
NORTHEAST ILLINOIS

CITY           SKY/WX    TMP DP  RH WIND       PRES   REMARKS
OHARE          CLOUDY    41  32  70 E7        30.04F
MIDWAY         CLOUDY    43  35  73 E7        30.04F
AURORA         CLOUDY    43  34  70 E13       29.99F
LANSING*       CLOUDY    41  35  78 E5        30.05F
JOLIET*        CLOUDY    44  35  72 E12       30.02F
WAUKEGAN       CLOUDY    39  31  72 E7        30.05F
DUPAGE AIRPORT CLOUDY    42  33  70 E9        30.01F
WHEELING       CLOUDY    41  32  70 E7        30.05F
KANKAKEE*      CLOUDY    46  40  79 E7        30.04F
MORRIS*        CLOUDY    46  35  65 E12       30.00F
LEWIS AIRPORT* CLOUDY    43  34  72 E12       30.02F
NORTHERLY IS     N/A     41  35  79 NE8         N/A
$$

WIZ051-052-058>065-066-070>072-241200-
SOUTHEAST WISCONSIN

CITY           SKY/WX    TMP DP  RH WIND       PRES   REMARKS
MILWAUKEE      LGT RAIN  37  31  78 NE7       30.06F
KENOSHA*       CLOUDY    39  34  82 E7        30.05F
RACINE*        FLURRIES  38  35  89 E5        30.07F
BURLINGTON     CLOUDY    37  32  84 E9        30.02F
WAUKESHA       LGT RAIN  34  30  86 E9        30.04F WCI  26
WEST BEND      RAIN      34  32  93 E7        30.04F WCI  28
$$

INZ001>003-010>013-019-020-241200-
NORTHWEST INDIANA

CITY           SKY/WX    TMP DP  RH WIND       PRES   REMARKS
GARY*          CLOUDY    43  37  81 NE9       30.06F
MICHIGAN CITY* NOT AVBL
RENSSELAER*    NOT AVBL
VALPARAISO     CLOUDY    43  36  76 NE6       30.06R
$$

LMZ740>746-241200-
SOUTHERN LAKE MICHIGAN

STATION/POSITION TIME  SKY/WX   TEMP WIND        PRES    VSBY
                                AIR  DIR/SP/G
                 (UTC)          (F)  (DEG/KT/KT) (MB)    (MI)
HARRISON CRIB    1100            40   60/ 10/ 11   N/A
BURNHAM HARBOR   1100            41   50/  6/ 10   N/A
CALUMET HARBOR   1100            41   50/  7/ 10 1018.3F
BURNS HARBOR     NOT AVBL
MICHIGAN CITY    1100            46   50/  3/  4   N/A
$$

ABBREVIATIONS USED IN REMARKS
   TC - TEMPERATURE IN CELSIUS
  WCI - WIND CHILL INDEX
   HX - HEAT INDEX
  VSB - VISIBILITY
$$


USA.gov is the U.S. government's official web portal to all federal, state and local government web resources and services.